الصفحة الرئيسية
METAR-TAF:

METAR-TAF

مطار :

Front Range

دنفر, كولورادو, الولايات المتحدة

دائرة عرض: 39-47N, خط طول: 104-33W, ارتفاع: 1709 متر

مراقبة الطقس الحالي

تاريخ ووقت الإصدار 58 دقيقة قبل الساعة 17:52UTC
ريح 3 عقدة من الغرب/الجنوب الغربي
درجة الحرارة 12°درجة مئوية
الرطوبة 19%
ضغط 1019 hPa
الرؤية: 16.1 كم
غيوم قليلة على ارتفاع 12000 قدم
غيوم متفرقة على ارتفاع 20000 قدم

METAR: KFTG 171752Z 25003KT 10SM FEW120 SCT200 12/M11 A3009

زمن: 11:50 (18:50 UTC)


TAF: مفقودة

أرصاد الطقس والتوقعات من أكثر من 4000 مطار (تقارير الطقس للمطار METAR والتنبؤ بالطقس بالمطارTAF).

المحطات المتاحة هي النقط الصفراء والحمراء على الخريطة.

حرك المؤشر فوق النقطة لمعرفة اسم المحطة.

ثم انقر لمعرفة أرصاد وتوقعات الطقس.

لتغيير الخارطة: اضغط على الأزرار الخضراء مع رمز الصليب الأسود للتكبير. على الزر الأخضر مع شرطة للتصغير، أو على الأسهم الخضراء للخرائط المجاورة.


METAR-TAF: